Other Public Products
Issued by NWS Grand Forks, ND

Home | Current Version | Previous Version | Graphics & Text | Print | Product List | Glossary On
Versions: 1 2 3 4 5 6 7 8 9 10 11 12 13 14 15 16 17 18 19 20 21 22 23 24 25 26 27 28 29 30 31 32 33 34 35 36 37 38 39 40 41 42 43 44 45 46 47 48 49 50
000
FPUS83 KFGF 280731
OPUFGF
PRAIRIE TO PINES WEATHER ROUNDUP
NATIONAL WEATHER SERVICE EASTERN NORTH DAKOTA/GRAND FORKS ND
200 AM CDT SAT MAR 28 2015

 **SATELLITE DATA USED TO AUGMENT SKY COVER AT AUTOMATED STATIONS**
 *****  WEATHER ACROSS EASTERN NORTH DAKOTA  *****

CITY           SKY/WX    TMP DP  RH WIND       PRES   REMARKS
GRAND FORKS    CLEAR     23  19  85 SE6       30.10F WCI  16
GRAND FORKS AF MOCLDY    23  19  86 SE6       30.10R WCI  16
GRAND CITY NWS   N/A     23 N/A N/A S6          N/A  WCI  16
BUXTON           N/A     25  25  99 SE3         N/A
DEVILS LAKE    CLOUDY    28  25  86 S13       30.03R WCI  18
FARGO          MOCLDY    29  17  61 SE7       30.11S WCI  22
WAHPETON ARPT  CLOUDY    30  19  64 S9        30.11F WCI  22
$$

 *****  WEATHER ACROSS CENTRAL AND WESTERN NORTH DAKOTA  *****

CITY           SKY/WX    TMP DP  RH WIND       PRES   REMARKS
JAMESTOWN      CLOUDY    28  27  96 SE12      30.03R WCI  18
BISMARCK       MOCLDY    28  27  96 E7        29.98S WCI  21
MINOT          CLEAR     29  27  92 E3        29.96S
MINOT AFB      CLEAR     29  29 100 E5        29.96S WCI  24
GARRISON         N/A     30  28  92 CALM      29.95S
WILLISTON      CLEAR     35  33  92 E3        29.91S
DICKINSON      CLEAR     32  28  85 S7        29.91S
HETTINGER      CLEAR     30  26  85 CALM      29.95F
$$

 *****  OTHER OBSERVATIONS NORTHEAST NORTH DAKOTA  *****

CITY           SKY/WX    TMP DP  RH WIND       PRES   REMARKS
WALHALLA         N/A     27  27 100 S6        30.08F WCI  20
LANGDON        NOT AVBL
CAVALIER         N/A     25  23  93 SE5       30.08F WCI  19
GRAFTON        NOT AVBL
CANDO          CLOUDY    28  28 100 SE13G23   30.03S FOG     WCI  18
FORT TOTTEN      N/A     28  28 100 SE8       29.95S WCI  20
ROLLA          FOG       27  27 100 S12       30.01S VSB 3/4 WCI  16
RUGBY            N/A     28  28 100 SE12      30.00S WCI  18
 ***** THE ABOVE OBSERVATIONS ARE NON NWS ARE NOT QUALITY
        CONTROLLED AND MAY MIS-REPORT RAIN FOR SNOW...
$$

 *****  OTHER OBSERVATIONS SOUTHEAST NORTH DAKOTA *****

CITY           SKY/WX    TMP DP  RH WIND       PRES   REMARKS
COOPERSTOWN    NOT AVBL
VALLEY CITY    CLOUDY    28  28 100 S10       30.06S WCI  19
OAKES            N/A     28  28 100 SE12      30.06S WCI  18
GWINNER        CLOUDY    32  30  93 SE14        N/A  WCI  22
SHEYENNE NWR     N/A     29  24  82 S7        29.95S WCI  22
BUFFALO        NOT AVBL
WYNDMERE         N/A     28  27  93 SE5         N/A  WCI  23
 ***** THE ABOVE OBSERVATIONS ARE NON NWS ARE NOT QUALITY
       CONTROLLED AND MAY MIS-REPORT RAIN FOR SNOW...
$$

  *****  WEATHER ACROSS NORTHERN MINNESOTA  *****

CITY           SKY/WX    TMP DP  RH WIND       PRES   REMARKS
FLAG ISLAND    CLEAR     18   9  68 SW3       30.12S
WARROAD        CLEAR     19  16  86 CALM      30.12S
ROSEAU         CLEAR     21  18  86 SE3       30.12S
HALLOCK        CLEAR     25  19  80 SE8       30.11S WCI  16
THF RVR FALLS  CLEAR     25  18  74 E6        30.12S WCI  18
HALSTAD          N/A     18  12  78 SE8         N/A  WCI   8
FOSSTON        CLEAR     18  10  73 SE3       30.13R
BAUDETTE       CLEAR     18  13  80 SE3       30.11S
WASKISH        CLEAR     16  12  86 CALM      30.09F
CROOKSTON      CLEAR     21  18  86 SE7       30.13R WCI  13
$$
  *****  WEATHER ACROSS CENTRAL AND WEST MINNESOTA  *****

CITY           SKY/WX    TMP DP  RH WIND       PRES   REMARKS
BEMIDJI        CLEAR     16  10  76 CALM      30.12S
PARK RAPIDS    CLEAR     22  11  62 CALM      30.12R
WADENA         MOCLDY    23  16  74 CALM      30.12S
DETROIT LAKES  CLEAR     25  16  68 SE5       30.12S WCI  19
MOORHEAD       CLEAR     27  19  74 SE6       30.12S WCI  20
FERGUS FALLS   CLEAR     27  16  63 SE8       30.15S WCI  18
ELBOW LAKE     FAIR      25  19  75 SE7       30.11F WCI  18
MORRIS MN      CLOUDY    28  23  80 SE9       30.11F WCI  20
STAPLES        PTCLDY    21  12  68 CALM      30.14R
WHEATON        CLOUDY    28  25  86 SE12      30.13F WCI  18
$$
  *****  WEATHER ELSEWHERE ACROSS MINNESOTA  *****

CITY           SKY/WX    TMP DP  RH WIND       PRES   REMARKS
DULUTH         CLEAR     19  12  74 E5        30.15S WCI  12
INTRNTL FALLS  CLEAR     13  10  88 CALM      30.13S
ELY            CLEAR     12   7  79 CALM      30.15R
CLOQUET        CLEAR     19  14  79 CALM      30.16R
BRAINERD       CLEAR     19  12  74 CALM      30.15S
HIBBING        CLEAR     12   3  67 CALM      30.15S
ALEXANDRIA     PTCLDY    24  15  68 SE5       30.13S WCI  18
SAINT CLOUD    CLOUDY    23  14  68 CALM      30.16S
MINNEAPOLIS    MOCLDY    25   8  48 SE6       30.19R WCI  18
$$

  *****  WEATHER ACROSS SOUTH DAKOTA  *****

CITY           SKY/WX    TMP DP  RH WIND       PRES   REMARKS
SIOUX FALLS    CLOUDY    30  23  75 SE14      30.08R WCI  19
BROOKINGS      NOT AVBL
WATERTOWN      CLOUDY    28  24  85 SE10      30.06R WCI  19
HURON          CLEAR     28  24  85 SE9       30.04R WCI  19
SISSETON         N/A     29  26  89 S7        30.09F WCI  22
ABERDEEN       CLOUDY    32  26  78 SE6       30.05R
MITCHELL       CLEAR     28  24  85 SE9       30.04S WCI  19
PIERRE         PTCLDY    28  26  92 E5        29.97R WCI  23
MOBRIDGE       PTCLDY    27  25  92 E14       29.95S WCI  16
RAPID CITY     PTCLDY    41  32  70 NE10      29.96S
$$

  *****  SOME WEATHER IN NEARBY STATES *****

CITY           SKY/WX    TMP DP  RH WIND       PRES   REMARKS
GLASGOW MT     CLEAR     42  35  76 E14       29.83F
GREAT FALLS MT MOCLDY    48  34  58 S10       29.87F
CHEYENNE WY    CLEAR     43  25  49 W12       30.11F
SCOTTSBLUFF NE CLEAR     38  30  73 W5        30.01F
OMAHA NE       CLOUDY    36  23  59 SE13      30.09F
DES MOINES IA  CLOUDY    34  11  38 SE8       30.15S
DAVENPORT IA   CLEAR     23  13  65 SE3       30.21S
CHICAGO IL     CLEAR     22  13  68 N5        30.22R WCI  16
EAU CLAIRE WI  CLEAR     22  11  62 CALM      30.19S
LA CROSSE WI   CLEAR     22  13  68 CALM      30.21S
$$

  *****  SOME NATIONAL WEATHER *****

CITY           SKY/WX    TMP DP  RH WIND       PRES   REMARKS
LA GUARDIA NY  MOCLDY    38  25  59 N15       29.76F
RALEIGH NC     CLOUDY    42  38  85 N5        29.86R
ATLANTA GA     PTCLDY    40  30  67 NW9       30.01F
NEW ORLEANS LA PTCLDY    56  37  49 NE12      30.17S
OKLAHOMA CITY  MOCLDY    43  37  79 S8        30.07F
ALBUQUERQUE NM CLEAR     59  17  19 SW7       30.20S
SALT LAKE CITY CLEAR     53  33  46 S7        30.13F
LOS ANGELES CA CLEAR     61  57  87 SE3       30.06R
BOISE ID       CLEAR     63  40  42 SE12      29.94F
SEATTLE WA     CLOUDY    52  46  82 S13       30.07R
$$

*** WEATHER ACROSS MANITOBA...SASKATCHEWAN AND ONTARIO ***
                ***ONTARIO***

CITY           SKY/WX    TMP DP  RH WIND       PRES   REMARKS
GERALDTON      CLEAR      0 -13  55 W3        30.14S
THUNDER BAY    CLEAR      7   5  92 W2        30.21S
SIOUX LOOKOUT  CLEAR      3   0  85 S2        30.12S
TORONTO        MOCLDY    16   3  57 N16       30.07S WCI   0
BIG TROUT LK   CLEAR     14   1  57 W6        29.99F WCI   5
PICKLE LAKE    NOT AVBL
DRYDEN         CLEAR     16   3  57 S3        30.12R
KENORA         CLEAR     21   3  45 S5        30.11S WCI  15
$$
                *** MANITOBA***

CITY           SKY/WX    TMP DP  RH WIND       PRES   REMARKS
BRANDON        CLOUDY    28  27  93 S7        30.01F WCI  21
DAUPHIN        CLOUDY    30  27  86 S9        29.99F WCI  22
ISLAND LAKE    NOT AVBL
PILOT MOUND      N/A     27  27 100 S17         N/A  WCI  14
THE PAS        CLOUDY    27  25  93 S10G18    29.89F WCI  17
THOMPSON       PTCLDY    27  16  63 SW8       29.87F WCI  18
WINNIPEG       PTCLDY    27  21  80 S9        30.10F WCI  17
LYNN LAKE      CLOUDY    28  21  74 SW12G17   29.72F WCI  18
CHURCHILL      CLEAR     27  18  69 SW14      29.68F WCI  15
GILLAM         CLEAR     25  14  63 SW10      29.86F WCI  15
$$
                ***SASKATCHEWAN***

CITY           SKY/WX    TMP DP  RH WIND       PRES   REMARKS
ESTEVAN        MOCLDY    30  30 100 SE8       29.93F WCI  23
KINDERSLEY     PTCLDY    43  37  81 SE16      29.66F
LLOYDMINSTER   CLEAR     37  34  87 SE12      29.59F
PRINCE ALBERT  CLOUDY    34  32  93 S7        29.80F FOG
REGINA         PTCLDY    32  32 100 SE14      29.88F WCI  22


USA.gov is the U.S. government's official web portal to all federal, state and local government web resources and services.